Astra 1P

operational
NORAD ID: 60086 Int'l Des: 2024-115 Owner: SESSA Country: L
HEOCIRCULARGSOGEO

About Astra 1P

Description loading...

Live Position

Loading 3D Globe...

Upcoming Passes

Altitude History

Altitude vs Time

uPlot chart will show altitude changes over time

Two-Line Element Set

1 60086U 24115A 26047.14280683 .00000124 00000-0 00000+0 0 9990
2 60086 0.0739 312.0145 0005200 4.3449 260.3532 1.00271919 5981
Epoch: Feb 16, 2026 • Age: 6 hours

Current Status

Altitude 35764.3 km
Velocity 3.08 km/s
Sub-Earth Point -0.02°S, 19.18°E
Launch Date Jun 20, 2024
Age 1.6 years
Type other

Technical Details

Classification Payload
Mass 5000.00 kg
Dry Mass 4030.00 kg
Total Mass 5000.00 kg
Length 8.00 m
Diameter 3.00 m
Span 45.00 m
Shape Box + 2 Pan
Manufacturer THALES
Bus Type Spacebus NEO200
Phase Status In Orbit
Owner/State SESSA/L

Large Constellations

Loading constellations...